Temperature
7 5 5 6 6 7 6 6 6 7 7 7 6 6 7 8 7 7 8 8 8 9 9 9 9 9 9 9 9 9 9 10 10 10 10 10 10 10 10 10 11 11 11 11
5 6 6 6 7 6 6 6 6 6 7 7 6 6 6 7 7 8 8 8 8 9 9 9 9 9 9 9 9 9 9 9 9 9 9 9 9 10 10 10 10 10 11 11
6 6 7 7 6 6 6 6 6 6 6 6 6 7 7 7 7 7 7 8 8 8 8 9 9 8 8 8 8 8 9 9 9 9 9 9 9 9 9 9 9 10 10 10
6 6 7 6 6 6 6 7 7 6 5 5 6 6 6 6 6 6 7 7 8 8 8 8 8 8 8 8 8 8 8 8 8 8 8 8 8 8 8 9 9 9 9 9
6 6 6 6 6 7 6 7 6 6 5 5 5 5 6 6 6 7 6 7 8 8 8 8 8 8 7 7 7 7 7 8 8 8 8 8 8 8 8 8 8 9 9 9
6 6 6 6 7 7 6 6 5 4 4 5 5 5 5 5 6 7 6 7 8 8 8 8 7 7 7 7 7 7 7 7 7 7 7 7 7 7 8 8 8 8 8 8
6 6 6 7 6 6 6 5 5 5 4 5 5 4 5 6 6 6 6 7 8 8 7 7 7 7 7 7 7 7 7 7 7 7 7 7 7 7 7 7 7 8 8 8
5 5 6 6 6 6 6 5 5 5 5 4 4 4 5 6 6 7 7 7 8 7 7 7 7 7 7 7 7 6 6 6 6 6 6 6 6 6 7 7 7 7 7 7
5 5 6 6 6 6 6 5 5 4 4 4 4 4 5 6 6 6 6 6 7 8 7 7 7 7 7 7 6 6 6 6 6 6 6 6 6 6 6 6 6 6 7 7
5 5 5 5 6 6 6 5 3 4 5 5 5 4 5 6 7 6 5 6 7 7 7 7 7 7 7 6 6 6 6 6 6 6 6 6 6 6 6 6 6 6 6 6
5 4 4 5 5 5 5 5 4 3 4 4 4 6 6 6 6 5 5 6 7 7 8 7 7 7 6 6 6 6 5 5 5 5 5 6 6 6 6 6 6 6 6 6
4 3 3 4 5 5 5 5 4 4 4 3 3 5 7 5 5 5 5 7 7 7 7 7 7 7 6 6 6 5 5 5 5 5 5 5 5 5 5 5 5 5 5 5
4 3 3 5 5 5 5 4 4 4 3 2 3 5 6 5 5 6 6 7 7 7 7 7 7 7 6 6 6 5 5 5 5 5 5 5 5 5 5 5 5 5 5 5
5 3 3 5 5 5 4 4 4 3 3 3 3 4 6 5 5 5 6 7 7 7 7 7 7 6 6 6 6 5 5 5 5 5 4 5 5 5 4 4 4 4 4 4
4 3 2 2 3 3 3 4 4 3 3 3 4 4 6 6 5 6 6 6 6 7 7 7 7 6 6 6 6 5 5 5 5 4 4 4 4 4 4 4 4 4 4 4
2 3 2 2 3 3 3 4 3 4 4 4 4 5 6 6 6 5 6 6 6 7 7 7 7 6 6 6 6 5 5 5 5 4 4 4 4 4 4 4 4 4 4 4
2 2 3 2 2 2 3 4 4 3 3 3 4 5 5 5 4 5 6 6 6 7 7 7 7 7 6 6 6 5 5 5 5 4 4 4 4 4 4 4 3 3 3 3
1 2 2 2 2 3 5 5 4 3 4 3 4 4 4 5 6 7 7 7 7 7 7 7 7 7 6 6 5 5 5 5 4 4 4 4 4 4 3 3 3 3 3 3
1 2 2 2 2 3 4 4 4 3 4 4 4 4 5 5 5 6 8 8 8 8 7 7 7 6 6 6 5 5 5 5 4 4 4 4 4 3 3 3 3 3 3 3
1 2 2 2 2 3 6 5 5 5 5 5 4 4 4 4 3 5 8 7 7 7 7 7 6 6 6 6 5 5 5 4 4 4 4 4 3 3 3 3 3 3 3 2
1 1 2 2 2 3 4 4 5 5 6 7 6 6 5 4 5 7 7 7 7 7 7 6 6 6 6 5 5 5 5 5 4 4 4 3 3 3 3 3 3 2 2 2
2 1 1 2 2 3 4 3 4 5 7 7 7 7 6 6 7 7 7 7 7 7 7 6 6 6 6 5 5 5 5 4 4 4 3 3 3 3 3 2 2 2 2 2
1 2 2 2 4 5 5 5 7 7 6 7 7 7 7 6 6 6 6 6 6 6 6 6 6 6 5 5 5 4 4 4 4 3 3 3 3 3 2 2 2 2 2 2
1 1 1 1 2 4 5 6 7 6 6 6 6 6 6 6 6 6 6 6 6 6 6 6 6 5 5 5 4 4 4 4 3 3 3 3 2 2 2 2 2 2 2 1
2 1 0 1 2 3 5 7 7 7 6 6 6 6 5 5 5 5 5 5 5 6 6 5 5 5 5 5 4 4 4 3 3 3 3 3 2 2 2 2 2 1 1 1
1 2 2 3 4 3 5 7 6 6 6 5 5 5 5 5 5 5 5 5 5 5 5 5 5 5 5 4 4 4 3 3 3 3 3 2 2 2 2 1 1 1 1 1
Wind_Speed
5 6 4 2 1 2 3 2 1 2 2 2 3 7 9 6 3 4 4 4 4 4 3 3 2 3 3 4 5 6 6 6 5 3 3 3 2 2 2 2 3 4 4 3
7 5 2 1 2 3 3 2 1 3 2 1 3 7 8 5 4 4 5 5 5 4 3 3 3 3 3 4 5 6 6 6 5 3 3 2 2 2 3 3 3 3 3 3
4 2 2 2 3 3 2 1 1 2 4 3 4 7 5 3 2 3 3 4 3 4 4 3 3 3 4 5 5 6 6 6 5 4 3 3 2 2 2 2 2 3 3 3
3 2 2 3 2 2 1 1 1 1 2 3 3 4 7 4 5 5 5 4 4 4 4 3 3 4 4 5 5 5 6 6 5 4 3 2 2 2 2 2 3 3 3 3
2 2 2 2 2 0 1 1 1 1 1 2 1 2 8 3 5 6 6 5 5 5 4 4 4 4 4 4 4 5 6 6 5 4 3 2 2 2 2 2 2 3 3 2
2 1 0 1 1 1 1 3 3 4 3 2 3 3 7 5 6 6 5 5 6 5 5 4 4 3 3 4 4 4 5 5 5 4 3 2 2 3 2 3 2 2 2 2
5 4 2 1 2 4 5 4 4 5 4 5 2 3 9 8 7 6 7 7 6 5 4 4 3 4 4 4 4 4 4 5 5 5 3 2 2 2 2 2 2 2 2 2
3 4 3 1 1 1 1 4 4 2 4 5 3 6 8 7 5 5 6 5 5 5 4 5 5 4 4 4 4 4 4 5 5 4 4 3 2 2 2 2 2 2 2 2
1 4 3 1 1 3 2 2 3 3 1 4 6 7 9 4 4 4 5 5 6 6 6 6 5 5 4 4 4 3 4 4 4 4 4 3 2 2 2 2 2 2 2 2
2 3 4 3 1 1 2 5 4 3 1 5 7 6 5 6 6 5 5 6 7 6 5 5 5 5 4 4 3 3 3 4 4 3 3 2 2 2 2 2 2 2 2 2
2 2 5 3 3 4 3 3 3 2 3 3 5 8 6 7 6 6 8 7 7 6 6 6 5 4 4 3 3 3 3 3 3 3 3 2 2 2 2 2 2 2 2 2
2 2 4 6 4 2 4 5 6 3 4 4 4 9 6 6 6 6 7 7 6 6 5 5 5 4 3 3 3 3 3 3 3 2 2 2 2 2 2 2 2 2 2 2
2 2 3 5 2 0 2 4 5 3 3 5 5 9 3 2 4 5 6 7 6 6 5 5 4 4 4 4 4 4 3 3 3 2 1 2 2 2 2 2 2 2 2 2
3 3 6 7 5 2 5 5 6 6 5 6 11 14 12 10 9 9 8 7 7 7 6 5 5 5 5 4 4 4 4 3 2 2 2 2 2 2 2 2 2 2 1 1
3 4 6 9 10 8 10 12 10 13 11 11 11 12 18 13 10 9 8 7 7 7 7 7 7 6 5 5 5 4 4 3 2 2 2 3 3 2 2 2 2 1 1 1
2 3 3 7 7 8 13 17 16 16 13 16 16 18 16 11 7 8 8 8 9 9 8 8 7 7 7 6 5 5 4 4 2 3 3 3 2 2 2 2 1 1 1 1
2 2 2 6 6 7 10 12 13 8 9 10 15 15 9 8 9 8 8 8 10 10 9 8 8 8 8 7 6 6 5 3 3 3 3 2 2 2 2 2 1 1 1 1
6 4 2 4 6 7 8 2 7 8 9 12 11 11 9 10 9 9 9 10 11 10 9 8 7 7 6 5 5 5 4 3 3 3 3 3 2 3 2 1 1 1 1 1
7 6 3 2 5 10 10 5 6 7 8 10 13 13 10 6 5 7 7 8 10 10 9 8 7 6 5 5 5 4 4 4 4 4 4 4 3 3 2 2 2 2 1 1
4 4 4 4 4 7 7 1 2 2 7 5 8 9 6 1 4 6 5 5 7 8 7 6 5 4 5 5 4 5 5 5 6 6 5 4 4 3 3 4 3 2 2 2
5 5 8 9 8 10 8 3 4 2 6 3 4 6 5 6 8 7 7 6 7 7 7 6 5 6 6 5 5 6 6 7 7 5 4 4 4 4 4 3 2 1 1 1
9 8 8 7 8 11 5 7 8 9 4 4 5 5 7 9 9 9 8 8 8 7 6 6 6 7 6 5 6 7 8 7 4 4 4 4 4 4 3 2 2 1 2 1
9 10 7 11 12 6 5 9 7 4 6 6 6 7 8 9 10 10 9 9 8 8 7 6 7 7 5 6 7 9 8 5 4 4 5 4 4 3 3 3 3 2 2 2
6 6 6 8 13 12 11 10 10 9 10 10 10 10 9 10 11 11 10 9 8 8 8 6 6 7 7 7 8 9 6 5 5 6 5 4 4 3 3 3 3 3 3 3
8 6 6 10 11 10 11 11 12 11 10 11 11 10 10 11 12 11 10 10 9 8 7 6 7 9 9 7 8 7 6 6 6 6 5 5 4 4 4 3 3 4 4 4
8 10 10 13 10 9 9 8 8 10 11 11 11 11 10 10 12 11 10 9 8 8 7 7 8 9 8 7 7 7 6 7 7 6 5 5 4 4 3 3 2 4 5 6
Wind_Direction
24 56 50 15 64 139 140 134 265 280 312 347 271 281 287 292 277 264 267 260 256 264 282 302 319 334 347 351 351 346 344 339 342 340 340 332 319 312 314 312 316 312 306 290
44 38 338 342 63 69 81 94 336 322 343 336 293 287 282 267 243 237 242 246 248 267 297 305 314 336 343 338 339 336 336 331 333 322 306 282 280 284 278 292 315 314 310 302
82 323 345 65 52 53 31 146 262 304 337 13 340 310 293 284 267 265 254 244 246 244 261 289 308 311 324 326 326 328 323 323 322 320 312 310 300 298 298 313 314 314 310 304
47 355 58 62 36 63 329 262 218 354 28 332 31 305 287 282 291 271 263 255 252 255 255 269 284 300 305 306 318 322 322 322 319 322 320 307 294 290 288 298 298 309 319 318
7 9 55 57 337 33 257 353 60 66 95 337 343 235 285 301 275 267 261 255 254 250 247 254 261 271 290 303 313 319 326 328 329 325 316 310 304 294 295 301 309 318 330 338
333 332 76 205 318 79 57 45 51 46 60 307 241 199 281 252 236 262 262 259 258 257 255 259 267 278 295 308 318 324 330 333 337 334 328 323 314 315 320 324 325 324 331 338
349 345 355 43 39 26 54 63 23 2 359 263 252 223 253 255 240 239 257 265 260 253 251 260 275 286 294 305 313 320 326 328 334 336 338 340 330 318 310 306 310 320 324 326
2 317 314 1 132 137 63 112 138 223 265 293 294 244 256 263 267 257 257 260 257 252 247 246 251 259 271 284 296 310 317 318 326 329 330 339 339 321 311 310 309 311 307 309
351 290 316 298 224 143 121 131 157 147 267 281 276 280 296 269 273 266 263 263 258 251 247 248 252 256 262 270 277 285 297 306 314 318 320 331 334 329 315 317 323 316 318 319
173 281 298 311 56 33 147 144 105 126 258 286 292 274 259 279 276 276 268 262 261 257 254 255 253 253 257 258 269 284 287 291 299 309 310 319 326 320 318 325 331 326 328 334
161 223 305 326 213 197 147 147 144 155 182 214 286 276 229 234 255 265 268 263 259 256 253 255 259 258 256 262 264 274 284 292 301 304 307 317 319 323 331 325 316 315 323 326
150 142 272 264 254 197 190 188 161 180 232 207 235 272 263 241 258 258 266 269 265 258 255 254 257 260 259 261 264 265 269 275 284 295 307 314 322 332 327 312 308 312 309 312
149 129 325 336 349 147 232 209 185 173 177 198 216 263 285 284 283 265 262 270 271 270 267 264 257 253 253 254 257 262 261 262 275 286 295 313 322 321 307 302 302 303 302 316
134 182 202 228 244 225 249 235 198 182 208 230 231 257 279 284 286 285 277 268 268 268 264 261 259 254 250 248 248 252 260 259 262 265 274 284 287 286 288 293 299 299 295 305
133 235 244 255 263 259 252 249 227 217 217 228 247 252 268 274 270 271 267 267 268 267 263 254 250 251 250 247 245 243 251 255 249 246 256 265 274 279 283 290 295 302 314 319
146 242 281 279 263 262 266 254 238 234 232 240 257 270 268 274 267 264 262 257 257 258 257 253 247 244 244 241 239 236 239 240 228 230 246 259 263 264 268 274 281 303 329 337
204 204 289 281 306 315 271 242 215 207 210 209 235 248 266 276 271 262 255 250 250 253 253 248 242 238 238 234 227 227 230 223 217 226 242 251 249 251 258 266 267 258 277 303
176 173 234 291 336 266 248 219 187 211 237 220 235 253 260 259 270 265 251 244 251 249 245 243 239 240 237 227 220 220 216 209 215 225 237 240 237 243 251 255 251 248 232 232
180 172 214 256 283 280 288 256 188 201 266 227 230 252 264 282 310 290 255 232 237 241 240 238 234 232 229 226 217 207 214 212 216 228 233 233 225 232 234 238 244 237 227 243
163 174 200 213 250 259 262 283 164 118 284 249 209 241 254 260 302 282 276 261 255 253 246 240 236 227 229 226 200 199 214 214 226 231 232 227 216 217 226 235 237 222 210 225
158 193 216 226 244 266 259 212 134 203 258 274 218 237 226 219 238 268 288 274 258 256 249 237 225 225 230 213 190 209 217 225 230 228 225 221 216 218 226 232 226 216 195 187
187 189 202 200 223 253 222 154 189 225 267 277 259 245 241 252 268 278 278 272 267 262 251 233 224 234 230 201 195 215 229 231 219 212 219 225 221 216 210 205 218 203 186 187
206 201 197 204 222 249 197 211 236 245 263 267 266 266 261 267 273 278 275 271 266 258 251 236 225 235 232 208 201 218 232 217 201 206 219 225 221 216 199 195 204 201 198 207
240 206 214 247 256 258 258 256 263 258 256 267 270 273 267 265 271 275 275 273 268 260 250 239 226 229 234 221 215 224 226 203 197 211 219 215 210 217 211 203 200 201 207 213
224 196 222 250 265 281 269 252 257 265 268 272 272 266 260 263 269 269 272 270 265 259 250 233 225 231 236 227 224 225 214 196 204 213 216 212 208 207 209 211 212 211 214 209
203 209 220 247 239 238 261 262 263 267 270 271 276 279 269 256 263 267 267 264 259 255 248 238 233 233 236 226 227 224 207 195 199 212 215 212 206 204 203 206 237 236 225 232
Height
1499 1504 1508 1508 1508 1508 1510 1511 1512 1510 1507 1507 1507 1505 1500 1497 1497 1496 1495 1495 1494 1495 1495 1495 1495 1494 1493 1492 1491 1490 1488 1487 1485 1484 1483 1483 1483 1483 1483 1483 1484 1485 1487 1488
1506 1509 1509 1507 1507 1508 1510 1512 1512 1510 1507 1508 1507 1504 1497 1495 1494 1494 1493 1493 1492 1492 1493 1493 1493 1492 1491 1490 1489 1487 1486 1484 1483 1482 1481 1480 1479 1479 1479 1480 1481 1482 1483 1484
1510 1511 1508 1508 1509 1510 1511 1513 1512 1512 1510 1509 1508 1502 1497 1493 1492 1491 1491 1490 1490 1490 1490 1491 1491 1490 1489 1488 1486 1485 1483 1482 1480 1479 1478 1478 1477 1476 1477 1477 1477 1478 1479 1480
1511 1510 1509 1510 1511 1511 1513 1511 1511 1511 1514 1516 1514 1514 1499 1494 1493 1490 1488 1488 1488 1488 1488 1488 1488 1488 1487 1486 1484 1482 1481 1479 1478 1477 1476 1475 1474 1474 1474 1474 1474 1475 1475 1476
1513 1511 1511 1512 1512 1511 1512 1510 1512 1513 1515 1518 1515 1517 1503 1496 1492 1488 1486 1485 1485 1486 1486 1486 1486 1486 1485 1483 1482 1480 1478 1477 1475 1474 1473 1472 1472 1471 1471 1471 1471 1472 1472 1473
1513 1512 1512 1512 1511 1511 1511 1513 1514 1517 1519 1519 1514 1517 1507 1496 1489 1485 1483 1483 1483 1483 1484 1484 1484 1483 1483 1482 1480 1478 1477 1475 1474 1472 1471 1470 1469 1469 1468 1468 1468 1469 1469 1469
1516 1513 1512 1512 1512 1513 1514 1518 1525 1524 1527 1521 1515 1515 1504 1487 1484 1483 1482 1481 1481 1481 1481 1481 1481 1481 1480 1479 1478 1476 1475 1473 1472 1470 1469 1468 1467 1467 1466 1466 1466 1466 1466 1466
1522 1521 1514 1513 1514 1515 1516 1519 1527 1528 1527 1523 1516 1513 1494 1483 1480 1480 1479 1479 1479 1479 1479 1479 1479 1479 1478 1477 1476 1474 1472 1471 1470 1468 1467 1466 1465 1464 1464 1463 1463 1463 1463 1463
1524 1521 1515 1513 1513 1514 1516 1520 1522 1529 1529 1528 1517 1507 1491 1480 1479 1478 1478 1477 1476 1477 1477 1477 1477 1476 1475 1474 1473 1472 1470 1469 1468 1467 1465 1464 1463 1462 1461 1461 1461 1460 1460 1460
1522 1523 1517 1514 1513 1514 1515 1519 1526 1528 1526 1523 1514 1508 1496 1481 1478 1477 1476 1475 1474 1474 1475 1475 1474 1474 1473 1472 1471 1470 1468 1467 1466 1465 1463 1462 1461 1460 1459 1459 1458 1458 1457 1457
1521 1524 1520 1516 1514 1514 1517 1519 1521 1526 1527 1526 1520 1501 1482 1479 1476 1476 1474 1473 1472 1472 1472 1472 1472 1471 1470 1470 1469 1467 1466 1465 1464 1462 1461 1460 1459 1458 1457 1456 1456 1455 1455 1454
1521 1526 1525 1518 1513 1512 1513 1514 1519 1523 1523 1526 1526 1502 1475 1475 1474 1473 1472 1471 1470 1470 1469 1469 1469 1468 1468 1467 1466 1465 1464 1463 1461 1460 1459 1457 1456 1456 1455 1454 1453 1453 1452 1452
1521 1525 1526 1516 1517 1515 1513 1513 1514 1517 1520 1524 1521 1495 1474 1473 1471 1471 1470 1469 1468 1468 1467 1466 1466 1465 1464 1464 1463 1462 1461 1460 1459 1457 1456 1455 1454 1453 1453 1452 1451 1450 1449 1449
1518 1523 1525 1518 1511 1511 1511 1510 1512 1515 1518 1515 1506 1488 1474 1471 1471 1469 1467 1466 1465 1464 1463 1463 1462 1462 1461 1461 1460 1459 1458 1457 1456 1455 1454 1453 1452 1451 1450 1450 1449 1448 1447 1446
1517 1521 1520 1516 1512 1511 1508 1504 1505 1506 1504 1503 1489 1484 1470 1467 1467 1465 1464 1462 1462 1460 1460 1459 1459 1458 1458 1457 1457 1456 1455 1455 1453 1452 1451 1451 1450 1449 1448 1447 1447 1446 1445 1444
1517 1519 1517 1513 1507 1507 1502 1494 1494 1494 1493 1490 1484 1476 1463 1463 1463 1461 1460 1459 1458 1457 1456 1455 1455 1455 1454 1454 1454 1453 1452 1452 1451 1450 1449 1449 1448 1447 1446 1445 1444 1443 1443 1442
1518 1519 1517 1514 1509 1505 1494 1479 1480 1482 1479 1480 1478 1468 1461 1461 1459 1457 1456 1455 1454 1453 1452 1452 1451 1451 1451 1451 1450 1450 1449 1449 1448 1447 1447 1446 1445 1444 1443 1443 1442 1441 1441 1440
1515 1517 1516 1514 1511 1502 1476 1469 1471 1473 1470 1469 1465 1460 1459 1457 1455 1453 1452 1451 1449 1449 1449 1448 1448 1448 1447 1447 1447 1446 1446 1445 1445 1444 1444 1443 1443 1442 1441 1440 1440 1439 1439 1438
1508 1512 1514 1514 1512 1495 1474 1467 1468 1470 1465 1458 1459 1457 1455 1455 1453 1449 1448 1447 1446 1446 1445 1445 1444 1444 1444 1443 1443 1443 1442 1442 1441 1441 1441 1441 1440 1439 1439 1438 1437 1437 1436 1436
1508 1509 1512 1511 1509 1494 1468 1465 1464 1466 1464 1453 1453 1453 1453 1453 1455 1448 1445 1444 1443 1443 1442 1441 1441 1440 1440 1440 1439 1439 1438 1438 1438 1438 1438 1438 1437 1436 1436 1435 1435 1434 1434 1433
1507 1508 1507 1505 1502 1485 1466 1463 1464 1469 1459 1451 1450 1449 1450 1449 1448 1445 1442 1440 1440 1439 1438 1437 1437 1436 1436 1436 1435 1435 1435 1434 1435 1435 1434 1434 1434 1433 1433 1432 1432 1431 1431 1431
1496 1499 1499 1498 1497 1480 1459 1461 1462 1456 1450 1449 1447 1447 1445 1444 1442 1440 1438 1436 1435 1434 1433 1433 1432 1432 1432 1431 1431 1430 1430 1431 1431 1431 1430 1430 1430 1430 1429 1429 1429 1429 1428 1428
1487 1483 1481 1480 1470 1457 1455 1453 1451 1450 1448 1446 1445 1443 1442 1439 1437 1436 1434 1432 1430 1429 1428 1428 1427 1427 1427 1427 1426 1426 1426 1427 1426 1426 1426 1426 1426 1426 1426 1426 1426 1425 1425 1425
1476 1473 1474 1471 1458 1452 1450 1448 1447 1446 1444 1442 1441 1439 1437 1434 1432 1430 1429 1427 1425 1424 1423 1422 1422 1421 1421 1421 1421 1421 1422 1422 1421 1421 1422 1422 1422 1422 1422 1422 1422 1422 1422 1421
1467 1467 1467 1461 1452 1447 1442 1442 1441 1440 1438 1437 1435 1433 1431 1429 1426 1425 1423 1421 1420 1419 1418 1417 1416 1415 1415 1416 1416 1416 1416 1416 1416 1416 1417 1417 1417 1417 1418 1418 1418 1418 1418 1418
1456 1456 1457 1447 1442 1442 1437 1436 1436 1434 1432 1430 1428 1425 1424 1422 1420 1418 1416 1415 1414 1413 1412 1411 1410 1410 1410 1410 1410 1411 1411 1411 1411 1411 1412 1412 1412 1413 1413 1414 1414 1414 1414 1414